LOT121 EPWA-OMDB

Flight info

Callsign LOT121
Flight time 5h 27m
Altitude 39000
Route XIMBA N195 NATEV/N0486F380 DCT PODAN DCT KEKED/N0487F390 DCT BADOR DCT RONBU DCT ARTAT UP975 ERGUN UL124 EVSAS UM688 BAYIR/N0486F410 UM688 RATVO M688 KEDIM DCT SISIN M688 SIDAD P975 SESRU M677 VUTEB
Aircraft B772/H-SDE2E3FGHIJ5LORVWXY/LB1D1

Departure

Time 2026-04-22 02:19
Airport Warsaw Chopin Airport (EPWA)

Arrival

Time 2026-04-22 07:46
Airport Dubai International Airport (OMDB)
Time Latitude Longitude Altitude Speed Heading
2026-04-22 02:18 52.16313 20.97638 357 ft 0 kts 280°
2026-04-22 02:19 52.16345 20.97481 360 ft 50 kts 292°
2026-04-22 02:19 52.16624 20.96500 361 ft 137 kts 295°
2026-04-22 02:19 52.17122 20.94746 521 ft 193 kts 295°
2026-04-22 02:19 52.17734 20.92650 1309 ft 215 kts 298°
2026-04-22 02:20 52.18404 20.90399 2377 ft 228 kts 298°
2026-04-22 02:20 52.18844 20.87839 2935 ft 250 kts 270°
2026-04-22 02:20 52.18270 20.85099 3628 ft 260 kts 243°
2026-04-22 02:20 52.17441 20.82430 4042 ft 268 kts 252°
2026-04-22 02:21 52.16895 20.79536 4859 ft 267 kts 259°
2026-04-22 02:21 52.16358 20.76640 5583 ft 270 kts 244°
2026-04-22 02:21 52.15062 20.74403 6224 ft 281 kts 208°
2026-04-22 02:21 52.13163 20.73695 7014 ft 283 kts 174°
2026-04-22 02:22 52.11323 20.74615 7737 ft 281 kts 147°
2026-04-22 02:22 52.09767 20.76509 8472 ft 280 kts 135°
2026-04-22 02:22 52.08310 20.78696 9250 ft 281 kts 133°
2026-04-22 02:22 52.06891 20.80892 10037 ft 282 kts 132°
2026-04-22 02:23 52.05459 20.83104 10615 ft 292 kts 132°
2026-04-22 02:23 52.03950 20.85431 10790 ft 314 kts 133°
2026-04-22 02:23 52.02313 20.87945 10952 ft 336 kts 133°
2026-04-22 02:23 52.00572 20.90602 11420 ft 348 kts 133°
2026-04-22 02:24 51.98780 20.93313 12089 ft 355 kts 133°
2026-04-22 02:24 51.96928 20.96010 12770 ft 356 kts 139°
2026-04-22 02:24 51.94738 20.98058 13280 ft 372 kts 155°
2026-04-22 02:24 51.92224 20.99204 14029 ft 380 kts 166°
2026-04-22 02:25 51.89602 20.99825 14767 ft 383 kts 169°
2026-04-22 02:25 51.86943 21.00345 15296 ft 381 kts 169°
2026-04-22 02:25 51.84303 21.00918 15459 ft 386 kts 167°
2026-04-22 02:25 51.81650 21.01656 15672 ft 388 kts 166°
2026-04-22 02:26 51.78990 21.02495 15952 ft 389 kts 165°
2026-04-22 02:26 51.76358 21.03339 16345 ft 393 kts 165°
2026-04-22 02:26 51.73658 21.04186 17069 ft 394 kts 166°
2026-04-22 02:26 51.70926 21.05013 17775 ft 397 kts 166°
2026-04-22 02:27 51.68226 21.05805 18373 ft 401 kts 166°
2026-04-22 02:27 51.65433 21.06602 18877 ft 405 kts 166°
2026-04-22 02:27 51.62688 21.07374 19386 ft 408 kts 167°
2026-04-22 02:27 51.59871 21.08157 19914 ft 410 kts 167°
2026-04-22 02:28 51.57067 21.08931 20419 ft 413 kts 167°
2026-04-22 02:28 51.54207 21.09719 20893 ft 416 kts 167°
2026-04-22 02:28 51.51336 21.10511 21405 ft 419 kts 167°
2026-04-22 02:28 51.48465 21.11302 21896 ft 422 kts 167°
2026-04-22 02:29 51.45559 21.12103 22347 ft 426 kts 167°
2026-04-22 02:29 51.42635 21.12910 22774 ft 429 kts 167°
2026-04-22 02:29 51.39680 21.13724 23258 ft 432 kts 167°
2026-04-22 02:29 51.36703 21.14542 23735 ft 435 kts 167°
2026-04-22 02:30 51.33736 21.15356 24110 ft 437 kts 167°
2026-04-22 02:30 51.30696 21.16188 24512 ft 439 kts 167°
2026-04-22 02:30 51.27695 21.17009 24943 ft 440 kts 167°
2026-04-22 02:30 51.24648 21.17841 25365 ft 442 kts 167°
2026-04-22 02:31 51.21602 21.18672 25740 ft 445 kts 167°
2026-04-22 02:31 51.18569 21.19498 26098 ft 448 kts 167°
2026-04-22 02:31 51.15463 21.20344 26478 ft 450 kts 166°
2026-04-22 02:31 51.12386 21.21181 26850 ft 452 kts 166°
2026-04-22 02:32 51.09272 21.22027 27220 ft 455 kts 166°
2026-04-22 02:32 51.06141 21.22876 27592 ft 457 kts 166°
2026-04-22 02:32 51.03001 21.23727 27985 ft 459 kts 166°
2026-04-22 02:32 50.99937 21.24556 28400 ft 460 kts 166°
2026-04-22 02:33 50.96775 21.25412 28727 ft 463 kts 166°
2026-04-22 02:33 50.93600 21.26271 29041 ft 466 kts 166°
2026-04-22 02:33 50.90399 21.27134 29361 ft 468 kts 166°
2026-04-22 02:33 50.87147 21.28008 29699 ft 470 kts 166°
2026-04-22 02:34 50.83918 21.28875 30027 ft 472 kts 166°
2026-04-22 02:34 50.80673 21.29745 30298 ft 475 kts 166°
2026-04-22 02:34 50.77402 21.30622 30531 ft 477 kts 167°
2026-04-22 02:34 50.74113 21.31507 30707 ft 480 kts 168°
2026-04-22 02:35 50.70803 21.32394 30897 ft 483 kts 168°
2026-04-22 02:35 50.67497 21.33276 31109 ft 485 kts 168°
2026-04-22 02:35 50.64151 21.34166 31314 ft 487 kts 168°
2026-04-22 02:35 50.60854 21.35041 31507 ft 489 kts 168°
2026-04-22 02:36 50.57496 21.35930 31695 ft 490 kts 168°
2026-04-22 02:36 50.54119 21.36824 31950 ft 491 kts 168°
2026-04-22 02:36 50.50767 21.37713 32183 ft 492 kts 169°
2026-04-22 02:36 50.47379 21.38612 32377 ft 493 kts 169°
2026-04-22 02:37 50.43978 21.39512 32622 ft 493 kts 169°
2026-04-22 02:37 50.40596 21.40404 32934 ft 493 kts 169°
2026-04-22 02:37 50.37210 21.41293 33210 ft 492 kts 169°
2026-04-22 02:37 50.33835 21.42178 33405 ft 494 kts 169°
2026-04-22 02:38 50.30449 21.43064 33640 ft 494 kts 169°
2026-04-22 02:38 50.27058 21.43952 33897 ft 495 kts 170°
2026-04-22 02:38 50.23631 21.44850 33997 ft 498 kts 170°
2026-04-22 02:38 50.20213 21.45745 34282 ft 496 kts 171°
2026-04-22 02:39 50.16821 21.46631 34625 ft 493 kts 171°
2026-04-22 02:39 50.13441 21.47512 34759 ft 496 kts 171°
2026-04-22 02:39 50.10043 21.48395 34957 ft 495 kts 171°
2026-04-22 02:39 50.06643 21.49277 35149 ft 496 kts 171°
2026-04-22 02:40 50.03235 21.50160 35386 ft 495 kts 171°
2026-04-22 02:40 49.99878 21.51031 35520 ft 497 kts 171°
2026-04-22 02:40 49.96457 21.51917 35734 ft 497 kts 171°
2026-04-22 02:40 49.93078 21.52791 35876 ft 498 kts 171°
2026-04-22 02:41 49.89666 21.53671 36024 ft 499 kts 171°
2026-04-22 02:41 49.86233 21.54554 36255 ft 497 kts 171°
2026-04-22 02:41 49.82792 21.55438 36501 ft 496 kts 171°
2026-04-22 02:41 49.79431 21.56301 36640 ft 497 kts 171°
2026-04-22 02:42 49.76015 21.57176 36844 ft 496 kts 172°
2026-04-22 02:42 49.72585 21.58055 36999 ft 497 kts 172°
2026-04-22 02:42 49.69163 21.58932 37043 ft 500 kts 172°
2026-04-22 02:43 49.62276 21.60689 37086 ft 503 kts 172°
2026-04-22 02:43 49.55394 21.62442 37090 ft 502 kts 172°
2026-04-22 02:44 49.48527 21.64185 37078 ft 501 kts 172°
2026-04-22 02:44 49.41654 21.65923 37082 ft 500 kts 172°
2026-04-22 02:45 49.34785 21.67656 37082 ft 499 kts 172°
2026-04-22 02:45 49.27934 21.69380 37084 ft 498 kts 172°
2026-04-22 02:46 49.21138 21.71087 37081 ft 497 kts 172°
2026-04-22 02:46 49.14304 21.72797 37087 ft 497 kts 172°
2026-04-22 02:47 49.07475 21.74499 37084 ft 497 kts 172°
2026-04-22 02:47 49.00640 21.76200 37075 ft 497 kts 172°
2026-04-22 02:48 48.93866 21.77881 37068 ft 497 kts 173°
2026-04-22 02:48 48.87039 21.79571 37063 ft 497 kts 173°
2026-04-22 02:49 48.80216 21.81255 37068 ft 497 kts 173°
2026-04-22 02:49 48.73396 21.82934 37053 ft 497 kts 173°
2026-04-22 02:50 48.66608 21.84601 37055 ft 497 kts 173°
2026-04-22 02:50 48.59769 21.86275 37051 ft 498 kts 173°
2026-04-22 02:51 48.52925 21.87945 37043 ft 498 kts 173°
2026-04-22 02:51 48.46074 21.89613 37049 ft 498 kts 173°
2026-04-22 02:52 48.39218 21.91278 37052 ft 498 kts 173°
2026-04-22 02:52 48.32370 21.92935 37049 ft 499 kts 173°
2026-04-22 02:53 48.25507 21.94593 37044 ft 499 kts 173°
2026-04-22 02:53 48.18694 21.96234 37045 ft 499 kts 173°
2026-04-22 02:54 48.11834 21.97881 37046 ft 499 kts 173°
2026-04-22 02:54 48.04973 21.99524 37035 ft 499 kts 173°
2026-04-22 02:55 47.98561 22.01056 37044 ft 499 kts 173°
2026-04-22 02:55 47.91706 22.02690 37046 ft 499 kts 173°
2026-04-22 02:56 47.84857 22.04317 37047 ft 499 kts 173°
2026-04-22 02:56 47.78010 22.05941 37030 ft 499 kts 173°
2026-04-22 02:57 47.71149 22.07564 37038 ft 498 kts 174°
2026-04-22 02:57 47.65425 22.08913 37041 ft 498 kts 174°
2026-04-22 02:58 47.58649 22.11088 37024 ft 496 kts 160°
2026-04-22 02:58 47.55614 22.13407 37035 ft 501 kts 147°
2026-04-22 02:58 47.52881 22.16618 37050 ft 504 kts 137°
2026-04-22 02:59 47.47939 22.24050 37017 ft 501 kts 136°
2026-04-22 02:59 47.42846 22.31076 37041 ft 503 kts 140°
2026-04-22 03:00 47.37528 22.37894 37038 ft 510 kts 140°
2026-04-22 03:00 47.32176 22.44875 37044 ft 516 kts 140°
2026-04-22 03:01 47.26889 22.51935 37012 ft 518 kts 139°
2026-04-22 03:01 47.21547 22.59120 37027 ft 519 kts 139°
2026-04-22 03:02 47.16231 22.66240 37025 ft 518 kts 140°
2026-04-22 03:02 47.10899 22.73337 37028 ft 516 kts 140°
2026-04-22 03:03 47.05571 22.80401 37025 ft 515 kts 140°
2026-04-22 03:03 47.00261 22.87421 37013 ft 513 kts 140°
2026-04-22 03:04 46.95003 22.94356 36990 ft 511 kts 140°
2026-04-22 03:04 46.90047 23.00876 37006 ft 510 kts 140°
2026-04-22 03:05 46.84758 23.07817 37015 ft 510 kts 140°
2026-04-22 03:05 46.79461 23.14746 37005 ft 511 kts 140°
2026-04-22 03:06 46.74136 23.21695 37000 ft 513 kts 140°
2026-04-22 03:06 46.68808 23.28628 36999 ft 514 kts 140°
2026-04-22 03:07 46.63470 23.35556 36973 ft 515 kts 141°
2026-04-22 03:07 46.58134 23.42463 36983 ft 516 kts 141°
2026-04-22 03:08 46.52790 23.49359 36991 ft 517 kts 141°
2026-04-22 03:08 46.47409 23.56283 36987 ft 518 kts 141°
2026-04-22 03:09 46.42005 23.63218 36987 ft 518 kts 141°
2026-04-22 03:09 46.36588 23.70152 36988 ft 518 kts 141°
2026-04-22 03:10 46.31216 23.77008 36996 ft 518 kts 141°
2026-04-22 03:10 46.25810 23.83889 36989 ft 518 kts 141°
2026-04-22 03:11 46.20381 23.90783 36986 ft 518 kts 141°
2026-04-22 03:11 46.14973 23.97629 36986 ft 517 kts 141°
2026-04-22 03:12 46.09903 24.04031 36977 ft 517 kts 141°
2026-04-22 03:12 46.01796 24.14234 36964 ft 516 kts 142°
2026-04-22 03:13 45.96494 24.20885 36964 ft 516 kts 142°
2026-04-22 03:13 45.91133 24.27590 36984 ft 516 kts 142°
2026-04-22 03:14 45.85714 24.34350 36984 ft 516 kts 142°
2026-04-22 03:14 45.80288 24.41102 36971 ft 517 kts 142°
2026-04-22 03:15 45.74841 24.47861 36971 ft 517 kts 142°
2026-04-22 03:15 45.69393 24.54606 36988 ft 517 kts 142°
2026-04-22 03:16 45.63951 24.61322 36989 ft 518 kts 143°
2026-04-22 03:16 45.58481 24.68056 36996 ft 518 kts 143°
2026-04-22 03:17 45.53057 24.74716 37007 ft 519 kts 143°
2026-04-22 03:17 45.47575 24.81427 37008 ft 519 kts 143°
2026-04-22 03:18 45.42070 24.88151 36995 ft 519 kts 143°
2026-04-22 03:18 45.36594 24.94823 37012 ft 520 kts 143°
2026-04-22 03:19 45.31468 25.01048 37020 ft 521 kts 143°
2026-04-22 03:19 45.25926 25.07761 37005 ft 522 kts 143°
2026-04-22 03:20 45.20404 25.14436 37020 ft 522 kts 143°
2026-04-22 03:20 45.14846 25.21135 36990 ft 522 kts 143°
2026-04-22 03:21 45.09355 25.27740 37015 ft 522 kts 144°
2026-04-22 03:21 45.03808 25.34389 37020 ft 522 kts 144°
2026-04-22 03:22 44.98317 25.40955 37039 ft 521 kts 144°
2026-04-22 03:22 44.92767 25.47574 37020 ft 521 kts 144°
2026-04-22 03:23 44.87241 25.54147 37031 ft 521 kts 144°
2026-04-22 03:23 44.81694 25.60730 37033 ft 522 kts 144°
2026-04-22 03:24 44.76113 25.67335 37035 ft 522 kts 144°
2026-04-22 03:24 44.70567 25.73877 37031 ft 523 kts 144°
2026-04-22 03:25 44.64996 25.80437 37035 ft 523 kts 144°
2026-04-22 03:25 44.59399 25.87012 37043 ft 523 kts 144°
2026-04-22 03:26 44.53822 25.93546 37034 ft 523 kts 144°
2026-04-22 03:26 44.48253 26.00052 37024 ft 523 kts 144°
2026-04-22 03:27 44.42985 26.06190 37024 ft 524 kts 145°
2026-04-22 03:27 44.37384 26.12701 37017 ft 524 kts 145°
2026-04-22 03:28 44.31798 26.19179 37017 ft 524 kts 145°
2026-04-22 03:28 44.26174 26.25684 36974 ft 523 kts 145°
2026-04-22 03:29 44.20558 26.32162 37004 ft 523 kts 145°
2026-04-22 03:29 44.14944 26.38624 37008 ft 523 kts 145°
2026-04-22 03:30 44.09373 26.45020 36996 ft 523 kts 145°
2026-04-22 03:30 44.03988 26.51870 36996 ft 527 kts 137°
2026-04-22 03:31 43.99402 26.59702 37001 ft 532 kts 127°
2026-04-22 03:31 43.95318 26.68313 36975 ft 533 kts 125°
2026-04-22 03:32 43.91248 26.76874 36991 ft 531 kts 127°
2026-04-22 03:32 43.87005 26.85273 36998 ft 530 kts 128°
2026-04-22 03:33 43.82705 26.93498 36995 ft 530 kts 129°
2026-04-22 03:33 43.78628 27.01253 36987 ft 531 kts 129°
2026-04-22 03:34 43.74266 27.09580 36982 ft 531 kts 129°
2026-04-22 03:34 43.69941 27.17855 36978 ft 530 kts 129°
2026-04-22 03:35 43.65628 27.26090 36988 ft 529 kts 129°
2026-04-22 03:35 43.61346 27.34234 36985 ft 528 kts 129°
2026-04-22 03:36 43.57024 27.42427 36988 ft 526 kts 129°
2026-04-22 03:36 43.52720 27.50563 36964 ft 525 kts 129°
2026-04-22 03:37 43.48389 27.58724 36983 ft 525 kts 129°
2026-04-22 03:37 43.44115 27.66760 36990 ft 524 kts 129°
2026-04-22 03:38 43.39757 27.74931 36997 ft 525 kts 129°
2026-04-22 03:38 43.35461 27.82959 36982 ft 528 kts 129°
2026-04-22 03:39 43.31101 27.91091 36983 ft 527 kts 129°
2026-04-22 03:39 43.26752 27.99183 36983 ft 526 kts 129°
2026-04-22 03:40 43.22701 28.06695 36973 ft 524 kts 129°
2026-04-22 03:40 43.19088 28.13379 36961 ft 524 kts 129°
2026-04-22 03:41 43.14730 28.21421 36950 ft 524 kts 129°
2026-04-22 03:41 43.10387 28.29415 36981 ft 523 kts 129°
2026-04-22 03:42 43.06067 28.37345 36971 ft 524 kts 129°
2026-04-22 03:42 43.01713 28.45318 37002 ft 522 kts 129°
2026-04-22 03:43 42.97379 28.53229 37011 ft 522 kts 129°
2026-04-22 03:43 42.93009 28.61187 37001 ft 521 kts 130°
2026-04-22 03:44 42.88681 28.69046 37000 ft 521 kts 130°
2026-04-22 03:44 42.84330 28.76926 37004 ft 521 kts 130°
2026-04-22 03:45 42.79972 28.84799 37000 ft 521 kts 130°
2026-04-22 03:45 42.75594 28.92687 37004 ft 521 kts 130°
2026-04-22 03:46 42.71310 29.00386 36996 ft 521 kts 130°
2026-04-22 03:46 42.67117 29.07901 37003 ft 521 kts 130°
2026-04-22 03:47 42.62726 29.15751 37001 ft 522 kts 130°
2026-04-22 03:47 42.58322 29.23605 36997 ft 522 kts 130°
2026-04-22 03:48 42.53918 29.31439 36986 ft 522 kts 130°
2026-04-22 03:48 42.49500 29.39275 36991 ft 522 kts 130°
2026-04-22 03:49 42.45089 29.47082 36999 ft 523 kts 130°
2026-04-22 03:49 42.40674 29.54876 36992 ft 523 kts 130°
2026-04-22 03:50 42.36518 29.62999 36968 ft 518 kts 121°
2026-04-22 03:50 42.33842 29.71979 36998 ft 524 kts 105°
2026-04-22 03:51 42.31944 29.81491 36980 ft 520 kts 108°
2026-04-22 03:51 42.29518 29.90732 36998 ft 526 kts 112°
2026-04-22 03:52 42.26892 29.99985 36997 ft 532 kts 111°
2026-04-22 03:52 42.24541 30.08769 36994 ft 535 kts 110°
2026-04-22 03:53 42.22112 30.18258 36983 ft 534 kts 109°
2026-04-22 03:53 42.19714 30.27663 36976 ft 525 kts 109°
2026-04-22 03:54 42.17317 30.36950 36986 ft 524 kts 110°
2026-04-22 03:54 42.14900 30.46223 36972 ft 524 kts 110°
2026-04-22 03:55 42.12487 30.55444 36988 ft 524 kts 110°
2026-04-22 03:55 42.10050 30.64728 36986 ft 524 kts 110°
2026-04-22 03:56 42.07604 30.74017 36983 ft 524 kts 110°
2026-04-22 03:56 42.05177 30.83199 36983 ft 524 kts 110°
2026-04-22 03:57 42.02732 30.92416 36988 ft 524 kts 110°
2026-04-22 03:57 42.00418 31.01110 36980 ft 524 kts 110°
2026-04-22 03:58 41.98006 31.10112 36982 ft 523 kts 110°
2026-04-22 03:58 41.95538 31.19267 36981 ft 523 kts 110°
2026-04-22 03:59 41.93058 31.28438 36981 ft 522 kts 110°
2026-04-22 03:59 41.90575 31.37596 36969 ft 521 kts 110°
2026-04-22 04:00 41.88088 31.46736 36976 ft 521 kts 110°
2026-04-22 04:00 41.85591 31.55880 36981 ft 520 kts 110°
2026-04-22 04:01 41.83114 31.64921 36986 ft 520 kts 110°
2026-04-22 04:01 41.80643 31.74063 36982 ft 519 kts 110°
2026-04-22 04:02 41.78164 31.83141 36977 ft 519 kts 111°
2026-04-22 04:02 41.75633 31.92186 36983 ft 519 kts 111°
2026-04-22 04:03 41.73217 32.00811 36983 ft 519 kts 111°
2026-04-22 04:03 41.70799 32.09465 36977 ft 519 kts 111°
2026-04-22 04:04 41.68263 32.18493 36966 ft 519 kts 111°
2026-04-22 04:04 41.65719 32.27508 36981 ft 519 kts 111°
2026-04-22 04:05 41.63222 32.36503 36964 ft 518 kts 111°
2026-04-22 04:05 41.60682 32.45516 36966 ft 517 kts 111°
2026-04-22 04:06 41.58133 32.54511 36958 ft 517 kts 111°
2026-04-22 04:06 41.55574 32.63499 36980 ft 516 kts 111°
2026-04-22 04:07 41.53026 32.72419 36959 ft 517 kts 111°
2026-04-22 04:07 41.50462 32.81371 36951 ft 517 kts 111°
2026-04-22 04:08 41.47879 32.90359 36966 ft 517 kts 111°
2026-04-22 04:08 41.45268 32.99293 36959 ft 514 kts 114°
2026-04-22 04:09 41.42276 33.07079 36965 ft 509 kts 122°
2026-04-22 04:09 41.38682 33.15249 36950 ft 512 kts 121°
2026-04-22 04:10 41.35230 33.23518 36951 ft 515 kts 120°
2026-04-22 04:10 41.31847 33.31963 36951 ft 517 kts 119°
2026-04-22 04:11 41.28465 33.40450 36941 ft 519 kts 119°
2026-04-22 04:11 41.25086 33.48956 36950 ft 519 kts 119°
2026-04-22 04:12 41.21743 33.57412 36949 ft 518 kts 119°
2026-04-22 04:12 41.18394 33.65858 36934 ft 517 kts 119°
2026-04-22 04:13 41.15034 33.74293 36936 ft 516 kts 119°
2026-04-22 04:13 41.11678 33.82686 36958 ft 515 kts 119°
2026-04-22 04:14 41.08328 33.91038 36943 ft 514 kts 120°
2026-04-22 04:14 41.04970 33.99390 36942 ft 513 kts 120°
2026-04-22 04:15 41.01890 34.07032 36940 ft 513 kts 120°
2026-04-22 04:15 40.98562 34.15266 36927 ft 513 kts 120°
2026-04-22 04:16 40.93510 34.27721 36920 ft 513 kts 120°
2026-04-22 04:17 40.90128 34.36029 36922 ft 513 kts 120°
2026-04-22 04:17 40.86739 34.44336 36907 ft 513 kts 120°
2026-04-22 04:18 40.83346 34.52627 36915 ft 513 kts 120°
2026-04-22 04:18 40.79947 34.60911 36911 ft 514 kts 120°
2026-04-22 04:19 40.76553 34.69163 36921 ft 515 kts 120°
2026-04-22 04:19 40.73494 34.77672 36898 ft 509 kts 110°
2026-04-22 04:20 40.71468 34.86680 36911 ft 516 kts 104°
2026-04-22 04:20 40.69660 34.95924 36919 ft 520 kts 105°
2026-04-22 04:21 40.67914 35.04268 36916 ft 520 kts 106°
2026-04-22 04:21 40.65874 35.13418 36921 ft 520 kts 107°
2026-04-22 04:22 40.63805 35.22496 36905 ft 518 kts 107°
2026-04-22 04:22 40.61737 35.31593 36907 ft 516 kts 107°
2026-04-22 04:23 40.59697 35.40608 36904 ft 515 kts 107°
2026-04-22 04:23 40.57648 35.49647 36905 ft 513 kts 107°
2026-04-22 04:24 40.55610 35.58594 36907 ft 512 kts 107°
2026-04-22 04:24 40.53554 35.67583 36905 ft 512 kts 107°
2026-04-22 04:25 40.51501 35.76513 36903 ft 512 kts 107°
2026-04-22 04:25 40.49436 35.85459 36905 ft 512 kts 107°
2026-04-22 04:26 40.47352 35.94456 36916 ft 513 kts 108°
2026-04-22 04:26 40.45757 36.01318 36902 ft 514 kts 108°
2026-04-22 04:27 40.43365 36.11572 36932 ft 514 kts 108°
2026-04-22 04:27 40.41613 36.19056 36927 ft 515 kts 108°
2026-04-22 04:28 40.39495 36.28063 36947 ft 516 kts 108°
2026-04-22 04:28 40.37376 36.37041 36924 ft 517 kts 108°
2026-04-22 04:29 40.35239 36.46064 36955 ft 517 kts 108°
2026-04-22 04:29 40.33108 36.55029 36939 ft 517 kts 108°
2026-04-22 04:30 40.30964 36.64010 36917 ft 517 kts 108°
2026-04-22 04:30 40.28805 36.73012 36923 ft 516 kts 108°
2026-04-22 04:31 40.26647 36.81982 36916 ft 515 kts 108°
2026-04-22 04:31 40.24492 36.90905 36924 ft 514 kts 108°
2026-04-22 04:32 40.22334 36.99810 36924 ft 513 kts 108°
2026-04-22 04:32 40.20349 37.07963 36914 ft 512 kts 109°
2026-04-22 04:33 40.18191 37.16799 36933 ft 511 kts 109°
2026-04-22 04:33 40.16029 37.25625 36922 ft 510 kts 109°
2026-04-22 04:34 40.13862 37.34428 36941 ft 510 kts 109°
2026-04-22 04:34 40.11687 37.43238 36926 ft 510 kts 109°
2026-04-22 04:35 40.09503 37.52057 36930 ft 511 kts 109°
2026-04-22 04:35 40.07271 37.60896 36926 ft 511 kts 110°
2026-04-22 04:36 40.04779 37.69543 36930 ft 510 kts 113°
2026-04-22 04:36 40.02151 37.78205 36929 ft 510 kts 112°
2026-04-22 04:37 39.99605 37.86703 36927 ft 511 kts 112°
2026-04-22 04:37 39.97032 37.95436 36919 ft 511 kts 112°
2026-04-22 04:38 39.94708 38.03347 36929 ft 511 kts 112°
2026-04-22 04:38 39.92155 38.11998 36929 ft 512 kts 112°
2026-04-22 04:39 39.89621 38.20542 36935 ft 512 kts 112°
2026-04-22 04:39 39.87030 38.29243 36931 ft 511 kts 112°
2026-04-22 04:40 39.84460 38.37846 36933 ft 511 kts 112°
2026-04-22 04:40 39.81883 38.46439 36939 ft 511 kts 112°
2026-04-22 04:41 39.79297 38.55040 36932 ft 511 kts 112°
2026-04-22 04:41 39.76716 38.63600 36946 ft 511 kts 112°
2026-04-22 04:42 39.74113 38.72209 36954 ft 511 kts 112°
2026-04-22 04:42 39.71514 38.80772 36944 ft 511 kts 112°
2026-04-22 04:43 39.68891 38.89385 36951 ft 511 kts 113°
2026-04-22 04:43 39.66275 38.97951 36963 ft 511 kts 113°
2026-04-22 04:44 39.63886 39.05748 36951 ft 511 kts 113°
2026-04-22 04:44 39.61262 39.14288 36964 ft 511 kts 113°
2026-04-22 04:45 39.58629 39.22833 36963 ft 511 kts 113°
2026-04-22 04:45 39.55980 39.31403 36955 ft 511 kts 113°
2026-04-22 04:46 39.53336 39.39929 36958 ft 511 kts 113°
2026-04-22 04:46 39.50707 39.48524 36959 ft 511 kts 111°
2026-04-22 04:47 39.48413 39.57206 36960 ft 511 kts 109°
2026-04-22 04:47 39.46241 39.65974 36951 ft 510 kts 108°
2026-04-22 04:48 39.44048 39.74651 36954 ft 510 kts 109°
2026-04-22 04:48 39.41798 39.83343 36956 ft 510 kts 109°
2026-04-22 04:49 39.39523 39.92059 36941 ft 511 kts 109°
2026-04-22 04:49 39.37306 40.00556 36951 ft 511 kts 109°
2026-04-22 04:50 39.35187 40.08664 36951 ft 511 kts 109°
2026-04-22 04:50 39.32742 40.17250 36939 ft 505 kts 115°
2026-04-22 04:51 39.29120 40.24926 36968 ft 503 kts 131°
2026-04-22 04:51 39.24515 40.31780 36956 ft 502 kts 132°
2026-04-22 04:52 39.20258 40.38877 36963 ft 505 kts 127°
2026-04-22 04:52 39.16163 40.46270 36979 ft 512 kts 128°
2026-04-22 04:53 39.11863 40.53754 36965 ft 515 kts 129°
2026-04-22 04:53 39.07569 40.60965 36967 ft 505 kts 129°
2026-04-22 04:54 39.03285 40.68078 36983 ft 505 kts 129°
2026-04-22 04:54 38.99015 40.75174 36981 ft 505 kts 129°
2026-04-22 04:55 38.94727 40.82313 36980 ft 506 kts 129°
2026-04-22 04:55 38.90403 40.89503 36977 ft 506 kts 129°
2026-04-22 04:56 38.86102 40.96636 36972 ft 506 kts 130°
2026-04-22 04:56 38.82162 41.03155 36979 ft 507 kts 130°
2026-04-22 04:57 38.77829 41.10308 36965 ft 508 kts 130°
2026-04-22 04:57 38.73516 41.17413 36953 ft 508 kts 130°
2026-04-22 04:58 38.69156 41.24579 36949 ft 508 kts 130°
2026-04-22 04:58 38.64804 41.31718 36944 ft 508 kts 130°
2026-04-22 04:59 38.60455 41.38838 36938 ft 508 kts 130°
2026-04-22 04:59 38.56176 41.46012 36954 ft 509 kts 128°
2026-04-22 05:00 38.52019 41.53305 36953 ft 509 kts 128°
2026-04-22 05:00 38.47857 41.60602 36945 ft 508 kts 128°
2026-04-22 05:01 38.43653 41.67877 36927 ft 509 kts 128°
2026-04-22 05:01 38.39448 41.75115 36940 ft 508 kts 129°
2026-04-22 05:02 38.35251 41.82338 36951 ft 508 kts 129°
2026-04-22 05:02 38.31024 41.89596 36955 ft 508 kts 129°
2026-04-22 05:03 38.26812 41.96814 36948 ft 508 kts 129°
2026-04-22 05:03 38.22972 42.03384 36962 ft 508 kts 129°
2026-04-22 05:04 38.18764 42.10570 36959 ft 508 kts 129°
2026-04-22 05:04 38.14544 42.17763 36963 ft 508 kts 129°
2026-04-22 05:05 38.10307 42.24958 36975 ft 507 kts 129°
2026-04-22 05:05 38.06086 42.32084 36978 ft 507 kts 129°
2026-04-22 05:06 38.01839 42.39242 36976 ft 507 kts 129°
2026-04-22 05:06 37.97618 42.46349 36982 ft 507 kts 129°
2026-04-22 05:07 37.93383 42.53464 36974 ft 507 kts 129°
2026-04-22 05:07 37.89124 42.60605 36987 ft 507 kts 129°
2026-04-22 05:08 37.84930 42.67761 36991 ft 506 kts 127°
2026-04-22 05:08 37.81203 42.75330 36993 ft 507 kts 122°
2026-04-22 05:09 37.77652 42.83104 36995 ft 509 kts 122°
2026-04-22 05:09 37.74073 42.90788 36990 ft 509 kts 123°
2026-04-22 05:10 37.71032 42.97151 36996 ft 509 kts 124°
2026-04-22 05:10 37.67050 43.05396 37000 ft 509 kts 124°
2026-04-22 05:11 37.63383 43.12977 36995 ft 509 kts 124°
2026-04-22 05:11 37.59706 43.20583 36995 ft 508 kts 124°
2026-04-22 05:12 37.56627 43.26948 36989 ft 508 kts 124°
2026-04-22 05:12 37.52946 43.34536 36973 ft 508 kts 124°
2026-04-22 05:13 37.49255 43.42127 36984 ft 508 kts 124°
2026-04-22 05:13 37.45559 43.49709 36982 ft 508 kts 124°
2026-04-22 05:14 37.41854 43.57291 36979 ft 508 kts 124°
2026-04-22 05:14 37.38168 43.64820 37002 ft 508 kts 124°
2026-04-22 05:15 37.34448 43.72402 36980 ft 509 kts 124°
2026-04-22 05:15 37.30714 43.79995 36986 ft 510 kts 124°
2026-04-22 05:16 37.26965 43.87573 36986 ft 510 kts 126°
2026-04-22 05:16 37.22328 43.94013 36985 ft 492 kts 152°
2026-04-22 05:16 37.19270 43.95896 36991 ft 483 kts 165°
2026-04-22 05:17 37.16098 43.97093 36990 ft 477 kts 169°
2026-04-22 05:17 37.09804 43.99646 36992 ft 476 kts 163°
2026-04-22 05:18 37.00973 44.04147 36982 ft 489 kts 162°
2026-04-22 05:18 36.94624 44.07200 36989 ft 495 kts 164°
2026-04-22 05:19 36.88137 44.10189 36979 ft 496 kts 164°
2026-04-22 05:19 36.81750 44.13142 36968 ft 487 kts 164°
2026-04-22 05:20 36.75405 44.16068 36957 ft 488 kts 165°
2026-04-22 05:20 36.68953 44.18772 36970 ft 488 kts 167°
2026-04-22 05:21 36.62487 44.21336 36962 ft 490 kts 167°
2026-04-22 05:21 36.55983 44.23931 36952 ft 491 kts 167°
2026-04-22 05:22 36.49466 44.26573 36964 ft 491 kts 167°
2026-04-22 05:22 36.42985 44.29216 36968 ft 492 kts 166°
2026-04-22 05:23 36.36465 44.31870 36967 ft 492 kts 167°
2026-04-22 05:23 36.29988 44.34497 36959 ft 492 kts 167°
2026-04-22 05:24 36.23481 44.37128 36947 ft 491 kts 167°
2026-04-22 05:24 36.16978 44.39755 36958 ft 491 kts 167°
2026-04-22 05:25 36.10446 44.42388 36953 ft 491 kts 167°
2026-04-22 05:25 36.03958 44.45000 36946 ft 490 kts 167°
2026-04-22 05:26 35.97520 44.47587 36953 ft 489 kts 167°
2026-04-22 05:26 35.91065 44.50175 36941 ft 488 kts 167°
2026-04-22 05:27 35.84632 44.52751 36938 ft 488 kts 167°
2026-04-22 05:27 35.78172 44.55333 36930 ft 488 kts 167°
2026-04-22 05:28 35.71706 44.57913 36942 ft 488 kts 168°
2026-04-22 05:28 35.65221 44.60496 36960 ft 489 kts 168°
2026-04-22 05:29 35.58750 44.63069 36956 ft 489 kts 168°
2026-04-22 05:29 35.52278 44.65638 36958 ft 489 kts 168°
2026-04-22 05:30 35.45823 44.68195 36936 ft 490 kts 168°
2026-04-22 05:30 35.39341 44.70761 36933 ft 489 kts 168°
2026-04-22 05:31 35.32833 44.73333 36949 ft 489 kts 168°
2026-04-22 05:31 35.26398 44.75870 36955 ft 489 kts 168°
2026-04-22 05:32 35.19901 44.78426 36951 ft 489 kts 168°
2026-04-22 05:32 35.13430 44.80967 36950 ft 489 kts 168°
2026-04-22 05:33 35.06939 44.83514 36949 ft 489 kts 168°
2026-04-22 05:33 35.00469 44.86048 36959 ft 489 kts 168°
2026-04-22 05:34 34.94010 44.88574 36922 ft 489 kts 169°
2026-04-22 05:34 34.87548 44.91100 36944 ft 489 kts 169°
2026-04-22 05:35 34.81064 44.93626 36942 ft 489 kts 169°
2026-04-22 05:35 34.74603 44.96138 36940 ft 489 kts 169°
2026-04-22 05:36 34.68090 44.98668 36937 ft 489 kts 169°
2026-04-22 05:36 34.62147 45.00974 36929 ft 489 kts 169°
2026-04-22 05:37 34.55674 45.03481 36950 ft 489 kts 169°
2026-04-22 05:37 34.49199 45.05984 36927 ft 488 kts 169°
2026-04-22 05:38 34.42712 45.08487 36935 ft 488 kts 169°
2026-04-22 05:38 34.36251 45.10976 36924 ft 488 kts 170°
2026-04-22 05:39 34.29767 45.13471 36932 ft 488 kts 170°
2026-04-22 05:39 34.23262 45.15968 36915 ft 489 kts 170°
2026-04-22 05:40 34.16796 45.18448 36929 ft 490 kts 170°
2026-04-22 05:40 34.10313 45.20929 36935 ft 490 kts 170°
2026-04-22 05:41 34.03798 45.23420 36927 ft 490 kts 170°
2026-04-22 05:41 33.97358 45.25879 36927 ft 490 kts 170°
2026-04-22 05:42 33.90848 45.28359 36910 ft 489 kts 171°
2026-04-22 05:42 33.84372 45.30823 36930 ft 489 kts 171°
2026-04-22 05:43 33.77906 45.33279 36935 ft 489 kts 171°
2026-04-22 05:43 33.71371 45.35755 36937 ft 489 kts 171°
2026-04-22 05:44 33.64923 45.38196 36933 ft 489 kts 171°
2026-04-22 05:44 33.58435 45.40648 36927 ft 488 kts 171°
2026-04-22 05:45 33.51992 45.43081 36953 ft 488 kts 171°
2026-04-22 05:45 33.45466 45.45540 36934 ft 488 kts 171°
2026-04-22 05:46 33.39028 45.47963 36932 ft 488 kts 171°
2026-04-22 05:46 33.32548 45.50397 36936 ft 488 kts 171°
2026-04-22 05:47 33.26076 45.52823 36918 ft 488 kts 171°
2026-04-22 05:47 33.19602 45.55248 36938 ft 488 kts 172°
2026-04-22 05:48 33.13082 45.57684 36940 ft 489 kts 172°
2026-04-22 05:48 33.06629 45.60093 36918 ft 489 kts 172°
2026-04-22 05:49 33.00129 45.62517 36934 ft 489 kts 172°
2026-04-22 05:49 32.93676 45.64919 36907 ft 490 kts 172°
2026-04-22 05:50 32.87163 45.67384 36919 ft 493 kts 169°
2026-04-22 05:50 32.80832 45.70678 36893 ft 501 kts 157°
2026-04-22 05:51 32.78007 45.73156 36920 ft 515 kts 147°
2026-04-22 05:51 32.75339 45.76046 36932 ft 519 kts 144°
2026-04-22 05:51 32.70045 45.81754 36919 ft 506 kts 149°
2026-04-22 05:52 32.64453 45.86817 36920 ft 511 kts 152°
2026-04-22 05:52 32.58687 45.91850 36938 ft 518 kts 151°
2026-04-22 05:53 32.52904 45.97082 36936 ft 523 kts 150°
2026-04-22 05:53 32.47746 46.01871 36923 ft 516 kts 150°
2026-04-22 05:54 32.42143 46.07096 36924 ft 513 kts 150°
2026-04-22 05:54 32.36540 46.12279 36912 ft 513 kts 150°
2026-04-22 05:55 32.30917 46.17453 36929 ft 513 kts 150°
2026-04-22 05:55 32.25278 46.22633 36929 ft 513 kts 150°
2026-04-22 05:56 32.19635 46.27810 36922 ft 514 kts 150°
2026-04-22 05:56 32.13989 46.32985 36926 ft 514 kts 150°
2026-04-22 05:57 32.08343 46.38152 36895 ft 515 kts 150°
2026-04-22 05:57 32.03625 46.42465 36904 ft 514 kts 150°
2026-04-22 05:58 31.97088 46.48428 36906 ft 514 kts 150°
2026-04-22 05:58 31.92362 46.52732 36909 ft 514 kts 150°
2026-04-22 05:59 31.86690 46.57890 36905 ft 513 kts 150°
2026-04-22 05:59 31.81065 46.62998 36881 ft 513 kts 150°
2026-04-22 06:00 31.75414 46.68121 36894 ft 512 kts 150°
2026-04-22 06:00 31.69753 46.73246 36902 ft 512 kts 150°
2026-04-22 06:01 31.64121 46.78335 36869 ft 511 kts 150°
2026-04-22 06:01 31.58507 46.83400 36888 ft 511 kts 150°
2026-04-22 06:02 31.52854 46.88491 36914 ft 512 kts 150°
2026-04-22 06:02 31.47188 46.93588 36897 ft 512 kts 150°
2026-04-22 06:03 31.41527 46.98673 36962 ft 513 kts 151°
2026-04-22 06:03 31.36432 47.03243 36882 ft 514 kts 151°
2026-04-22 06:04 31.30747 47.08335 36914 ft 514 kts 151°
2026-04-22 06:04 31.25098 47.13384 36916 ft 514 kts 151°
2026-04-22 06:05 31.19425 47.18448 36909 ft 513 kts 151°
2026-04-22 06:05 31.13750 47.23505 36906 ft 514 kts 151°
2026-04-22 06:06 31.08029 47.28596 36904 ft 514 kts 151°
2026-04-22 06:06 31.02370 47.33626 36906 ft 515 kts 151°
2026-04-22 06:07 30.96671 47.38681 36922 ft 517 kts 151°
2026-04-22 06:07 30.90971 47.43731 36863 ft 518 kts 151°
2026-04-22 06:08 30.85202 47.48836 36898 ft 519 kts 151°
2026-04-22 06:08 30.79631 47.54203 36871 ft 526 kts 146°
2026-04-22 06:09 30.74186 47.59969 36884 ft 528 kts 145°
2026-04-22 06:09 30.68790 47.65759 36846 ft 528 kts 145°
2026-04-22 06:10 30.63354 47.71487 36829 ft 526 kts 146°
2026-04-22 06:10 30.57909 47.77147 36829 ft 524 kts 146°
2026-04-22 06:11 30.52473 47.82774 36903 ft 524 kts 146°
2026-04-22 06:11 30.47055 47.88385 36863 ft 524 kts 146°
2026-04-22 06:12 30.41620 47.94014 36894 ft 523 kts 146°
2026-04-22 06:12 30.36192 47.99627 36901 ft 524 kts 146°
2026-04-22 06:13 30.31237 48.04743 36877 ft 525 kts 146°
2026-04-22 06:13 30.25748 48.10402 36898 ft 525 kts 146°
2026-04-22 06:14 30.20291 48.16019 36896 ft 526 kts 146°
2026-04-22 06:14 30.14855 48.21607 36889 ft 526 kts 146°
2026-04-22 06:15 30.09390 48.27217 36900 ft 527 kts 146°
2026-04-22 06:15 30.03918 48.32824 36899 ft 527 kts 146°
2026-04-22 06:16 29.98478 48.38391 36885 ft 525 kts 146°
2026-04-22 06:16 29.93003 48.43986 36895 ft 525 kts 146°
2026-04-22 06:17 29.87449 48.49378 36888 ft 516 kts 152°
2026-04-22 06:17 29.84514 48.51655 36859 ft 497 kts 160°
2026-04-22 06:17 29.81449 48.53370 36895 ft 492 kts 167°
2026-04-22 06:18 29.75104 48.56387 36886 ft 493 kts 165°
2026-04-22 06:18 29.68913 48.60030 36971 ft 505 kts 160°
2026-04-22 06:19 29.62702 48.63928 37198 ft 508 kts 161°
2026-04-22 06:19 29.59600 48.65788 37460 ft 506 kts 162°
2026-04-22 06:19 29.56475 48.67607 37743 ft 504 kts 163°
2026-04-22 06:20 29.53337 48.69402 37956 ft 504 kts 163°
2026-04-22 06:20 29.50191 48.71192 38070 ft 505 kts 163°
2026-04-22 06:20 29.47009 48.73009 38221 ft 507 kts 163°
2026-04-22 06:20 29.43860 48.74819 38410 ft 507 kts 162°
2026-04-22 06:21 29.40702 48.76639 38609 ft 507 kts 162°
2026-04-22 06:21 29.37582 48.78437 38752 ft 507 kts 163°
2026-04-22 06:21 29.31256 48.82073 38839 ft 510 kts 163°
2026-04-22 06:22 29.24900 48.85724 38895 ft 508 kts 163°
2026-04-22 06:22 29.18597 48.89342 38898 ft 508 kts 162°
2026-04-22 06:23 29.12506 48.93546 38876 ft 517 kts 150°
2026-04-22 06:23 29.07166 48.99150 38896 ft 527 kts 143°
2026-04-22 06:24 28.99504 49.06860 38919 ft 518 kts 150°
2026-04-22 06:25 28.93863 49.11985 38904 ft 523 kts 149°
2026-04-22 06:25 28.88295 49.17384 38910 ft 527 kts 147°
2026-04-22 06:26 28.82772 49.22956 38909 ft 531 kts 146°
2026-04-22 06:26 28.77318 49.28607 38893 ft 531 kts 146°
2026-04-22 06:27 28.71838 49.34245 38899 ft 531 kts 146°
2026-04-22 06:27 28.66330 49.39861 38881 ft 530 kts 146°
2026-04-22 06:28 28.60990 49.45665 38889 ft 535 kts 140°
2026-04-22 06:28 28.56661 49.52561 38921 ft 542 kts 123°
2026-04-22 06:29 28.53220 49.60188 38881 ft 537 kts 124°
2026-04-22 06:29 28.49264 49.67346 38893 ft 534 kts 130°
2026-04-22 06:30 28.45265 49.74484 38902 ft 539 kts 127°
2026-04-22 06:30 28.40921 49.81316 38891 ft 525 kts 141°
2026-04-22 06:30 28.38238 49.84045 38905 ft 515 kts 152°
2026-04-22 06:31 28.35260 49.86298 38885 ft 509 kts 158°
2026-04-22 06:31 28.29169 49.90372 38893 ft 510 kts 156°
2026-04-22 06:32 28.23251 49.94958 38898 ft 520 kts 153°
2026-04-22 06:32 28.17363 49.99708 38879 ft 523 kts 153°
2026-04-22 06:33 28.11798 50.04029 38882 ft 519 kts 154°
2026-04-22 06:33 28.05875 50.08508 38885 ft 511 kts 155°
2026-04-22 06:34 27.99952 50.12943 38870 ft 512 kts 155°
2026-04-22 06:34 27.94060 50.17367 38884 ft 513 kts 155°
2026-04-22 06:35 27.88065 50.21882 38893 ft 514 kts 155°
2026-04-22 06:35 27.82144 50.26337 38867 ft 516 kts 155°
2026-04-22 06:36 27.76107 50.30874 38878 ft 517 kts 155°
2026-04-22 06:36 27.70107 50.35374 38884 ft 518 kts 155°
2026-04-22 06:37 27.64146 50.39841 38855 ft 519 kts 155°
2026-04-22 06:37 27.58137 50.44396 38879 ft 520 kts 154°
2026-04-22 06:38 27.52169 50.49033 38877 ft 521 kts 154°
2026-04-22 06:38 27.46232 50.53625 38877 ft 521 kts 154°
2026-04-22 06:39 27.40235 50.58219 38878 ft 521 kts 154°
2026-04-22 06:39 27.34227 50.62793 38878 ft 521 kts 154°
2026-04-22 06:40 27.28248 50.67345 38864 ft 521 kts 154°
2026-04-22 06:40 27.22193 50.71955 38882 ft 522 kts 154°
2026-04-22 06:41 27.16245 50.76515 38871 ft 525 kts 152°
2026-04-22 06:41 27.10727 50.81956 38892 ft 535 kts 139°
2026-04-22 06:42 27.05779 50.88172 38869 ft 531 kts 141°
2026-04-22 06:42 27.00489 50.94001 38886 ft 539 kts 140°
2026-04-22 06:43 26.95917 51.00449 38879 ft 554 kts 123°
2026-04-22 06:43 26.92562 51.07795 38851 ft 553 kts 123°
2026-04-22 06:44 26.89280 51.13993 38882 ft 555 kts 126°
2026-04-22 06:44 26.85027 51.23006 38880 ft 565 kts 115°
2026-04-22 06:45 26.82928 51.29954 38889 ft 570 kts 107°
2026-04-22 06:45 26.80890 51.38522 38867 ft 563 kts 107°
2026-04-22 06:46 26.78600 51.46817 38880 ft 558 kts 110°
2026-04-22 06:46 26.76054 51.55035 38886 ft 561 kts 111°
2026-04-22 06:47 26.73524 51.63329 38889 ft 562 kts 110°
2026-04-22 06:47 26.71032 51.71624 38879 ft 563 kts 110°
2026-04-22 06:48 26.68518 51.79906 38865 ft 563 kts 110°
2026-04-22 06:48 26.66010 51.88183 38880 ft 561 kts 110°
2026-04-22 06:49 26.63456 51.96393 38876 ft 559 kts 111°
2026-04-22 06:49 26.60965 52.03975 38876 ft 557 kts 112°
2026-04-22 06:50 26.58273 52.12093 38877 ft 555 kts 112°
2026-04-22 06:50 26.55615 52.20180 38869 ft 553 kts 111°
2026-04-22 06:51 26.52970 52.28265 38871 ft 552 kts 111°
2026-04-22 06:51 26.50339 52.36298 38870 ft 551 kts 111°
2026-04-22 06:52 26.47699 52.44325 38885 ft 550 kts 111°
2026-04-22 06:52 26.45059 52.52330 38867 ft 551 kts 111°
2026-04-22 06:53 26.42420 52.60315 38873 ft 550 kts 111°
2026-04-22 06:53 26.39769 52.68357 38871 ft 551 kts 111°
2026-04-22 06:54 26.37145 52.76395 38864 ft 551 kts 111°
2026-04-22 06:54 26.34507 52.84422 38868 ft 552 kts 111°
2026-04-22 06:55 26.31923 52.92139 38848 ft 552 kts 112°
2026-04-22 07:06 26.31398 52.93698 38845 ft 552 kts 111°
2026-04-22 07:07 26.28879 53.01175 38759 ft 547 kts 111°
2026-04-22 07:07 26.26202 53.09147 38856 ft 550 kts 111°
2026-04-22 07:07 26.24847 53.13182 38463 ft 562 kts 111°
2026-04-22 07:08 26.23465 53.17290 37652 ft 563 kts 111°
2026-04-22 07:08 26.22118 53.21297 36964 ft 542 kts 112°
2026-04-22 07:08 26.20838 53.25102 36315 ft 521 kts 112°
2026-04-22 07:08 26.19571 53.28856 35639 ft 501 kts 112°
2026-04-22 07:09 26.18380 53.32370 34906 ft 486 kts 113°
2026-04-22 07:09 26.17092 53.35828 34220 ft 486 kts 115°
2026-04-22 07:09 26.15691 53.39313 33425 ft 499 kts 116°
2026-04-22 07:09 26.14246 53.42799 32925 ft 511 kts 117°
2026-04-22 07:10 26.12738 53.46418 32376 ft 517 kts 117°
2026-04-22 07:10 26.11237 53.50048 31846 ft 513 kts 116°
2026-04-22 07:10 26.10253 53.52449 31500 ft 510 kts 116°
2026-04-22 07:10 26.08780 53.56063 30975 ft 504 kts 116°
2026-04-22 07:11 26.07346 53.59594 30480 ft 499 kts 116°
2026-04-22 07:11 26.05913 53.63122 29963 ft 494 kts 116°
2026-04-22 07:11 26.04503 53.66586 29365 ft 490 kts 117°
2026-04-22 07:11 26.03121 53.69973 28777 ft 486 kts 117°
2026-04-22 07:12 26.01736 53.73360 28218 ft 481 kts 117°
2026-04-22 07:12 26.00358 53.76738 27665 ft 476 kts 116°
2026-04-22 07:12 25.99039 53.80055 27121 ft 472 kts 116°
2026-04-22 07:12 25.97736 53.83392 26586 ft 468 kts 116°
2026-04-22 07:13 25.96436 53.86740 26033 ft 464 kts 116°
2026-04-22 07:13 25.95180 53.89967 25517 ft 460 kts 116°
2026-04-22 07:13 25.93899 53.93234 24990 ft 456 kts 116°
2026-04-22 07:13 25.92638 53.96435 24472 ft 453 kts 116°
2026-04-22 07:14 25.91368 53.99636 23946 ft 451 kts 117°
2026-04-22 07:14 25.90208 54.02368 23485 ft 448 kts 119°
2026-04-22 07:14 25.88822 54.05444 22919 ft 445 kts 120°
2026-04-22 07:14 25.87414 54.08507 22375 ft 442 kts 120°
2026-04-22 07:15 25.86023 54.11549 21873 ft 439 kts 120°
2026-04-22 07:15 25.84664 54.14571 21396 ft 436 kts 119°
2026-04-22 07:15 25.83350 54.17523 20929 ft 433 kts 119°
2026-04-22 07:15 25.82017 54.20565 20455 ft 431 kts 118°
2026-04-22 07:16 25.80850 54.23587 19993 ft 430 kts 113°
2026-04-22 07:16 25.79846 54.26697 19529 ft 429 kts 110°
2026-04-22 07:16 25.78926 54.29847 19068 ft 427 kts 109°
2026-04-22 07:16 25.78031 54.32994 18593 ft 426 kts 109°
2026-04-22 07:17 25.77129 54.36118 18129 ft 426 kts 110°
2026-04-22 07:17 25.76207 54.39224 17611 ft 424 kts 110°
2026-04-22 07:17 25.75262 54.42330 17110 ft 422 kts 110°
2026-04-22 07:17 25.74316 54.45390 16651 ft 420 kts 111°
2026-04-22 07:18 25.73363 54.48450 16191 ft 417 kts 111°
2026-04-22 07:18 25.72423 54.51464 15731 ft 415 kts 111°
2026-04-22 07:18 25.71488 54.54470 15278 ft 413 kts 111°
2026-04-22 07:18 25.70555 54.57473 14815 ft 411 kts 111°
2026-04-22 07:19 25.69618 54.60484 14373 ft 409 kts 111°
2026-04-22 07:19 25.68679 54.63457 13906 ft 407 kts 112°
2026-04-22 07:19 25.67739 54.66391 13437 ft 406 kts 112°
2026-04-22 07:19 25.66790 54.69337 12912 ft 404 kts 112°
2026-04-22 07:20 25.65852 54.72246 12656 ft 396 kts 112°
2026-04-22 07:20 25.64939 54.75085 12477 ft 386 kts 112°
2026-04-22 07:20 25.64051 54.77850 12313 ft 376 kts 112°
2026-04-22 07:20 25.63185 54.80546 12148 ft 367 kts 112°
2026-04-22 07:21 25.62340 54.83176 12002 ft 358 kts 112°
2026-04-22 07:21 25.61514 54.85743 11856 ft 350 kts 112°
2026-04-22 07:21 25.60667 54.88239 11775 ft 337 kts 115°
2026-04-22 07:21 25.59767 54.90568 11736 ft 322 kts 117°
2026-04-22 07:22 25.58861 54.92781 11633 ft 311 kts 118°
2026-04-22 07:22 25.57973 54.94938 11382 ft 306 kts 118°
2026-04-22 07:22 25.57110 54.97076 11220 ft 298 kts 117°
2026-04-22 07:22 25.56288 54.99146 11075 ft 290 kts 117°
2026-04-22 07:23 25.55590 55.00915 10982 ft 289 kts 117°
2026-04-22 07:23 25.54793 55.02934 10868 ft 287 kts 117°
2026-04-22 07:23 25.53905 55.04943 10714 ft 285 kts 123°
2026-04-22 07:23 25.52930 55.06816 10568 ft 285 kts 124°
2026-04-22 07:24 25.51917 55.08699 10405 ft 285 kts 124°
2026-04-22 07:24 25.50908 55.10584 10247 ft 285 kts 124°
2026-04-22 07:24 25.49913 55.12470 10083 ft 284 kts 124°
2026-04-22 07:24 25.48924 55.14363 9929 ft 284 kts 124°
2026-04-22 07:25 25.47944 55.16248 9769 ft 282 kts 124°
2026-04-22 07:25 25.46962 55.18138 9613 ft 281 kts 123°
2026-04-22 07:25 25.45977 55.19999 9432 ft 276 kts 127°
2026-04-22 07:25 25.44799 55.21630 9285 ft 269 kts 136°
2026-04-22 07:26 25.43514 55.23136 9127 ft 267 kts 137°
2026-04-22 07:26 25.42238 55.24620 8988 ft 266 kts 137°
2026-04-22 07:26 25.40990 55.26109 8837 ft 265 kts 136°
2026-04-22 07:26 25.39749 55.27619 8688 ft 264 kts 135°
2026-04-22 07:27 25.38524 55.29122 8549 ft 264 kts 135°
2026-04-22 07:27 25.37305 55.30620 8397 ft 259 kts 135°
2026-04-22 07:27 25.36107 55.32093 8244 ft 252 kts 135°
2026-04-22 07:27 25.35042 55.33584 8086 ft 245 kts 126°
2026-04-22 07:28 25.33310 55.36772 7840 ft 242 kts 124°
2026-04-22 07:28 25.32452 55.38367 7708 ft 243 kts 124°
2026-04-22 07:28 25.31579 55.39967 7575 ft 242 kts 124°
2026-04-22 07:29 25.30703 55.41553 7429 ft 241 kts 124°
2026-04-22 07:29 25.29826 55.43130 7295 ft 240 kts 124°
2026-04-22 07:29 25.29233 55.44194 7202 ft 240 kts 124°
2026-04-22 07:29 25.28372 55.45739 7078 ft 239 kts 124°
2026-04-22 07:30 25.27492 55.47317 6933 ft 238 kts 124°
2026-04-22 07:30 25.26630 55.48864 6825 ft 235 kts 124°
2026-04-22 07:30 25.25791 55.50372 6714 ft 234 kts 124°
2026-04-22 07:30 25.24941 55.51900 6625 ft 232 kts 124°
2026-04-22 07:31 25.24084 55.53441 6513 ft 231 kts 124°
2026-04-22 07:31 25.23253 55.54933 6405 ft 231 kts 124°
2026-04-22 07:31 25.22412 55.56447 6320 ft 231 kts 124°
2026-04-22 07:31 25.21569 55.57960 6228 ft 232 kts 124°
2026-04-22 07:32 25.20721 55.59482 6126 ft 233 kts 124°
2026-04-22 07:32 25.19887 55.60978 6024 ft 234 kts 124°
2026-04-22 07:32 25.19014 55.62546 5916 ft 235 kts 124°
2026-04-22 07:32 25.18161 55.64079 5805 ft 236 kts 123°
2026-04-22 07:33 25.17293 55.65636 5714 ft 236 kts 123°
2026-04-22 07:33 25.16438 55.67170 5624 ft 236 kts 123°
2026-04-22 07:33 25.15579 55.68714 5510 ft 236 kts 123°
2026-04-22 07:33 25.14717 55.70261 5397 ft 235 kts 123°
2026-04-22 07:34 25.13876 55.71766 5308 ft 232 kts 123°
2026-04-22 07:34 25.13028 55.73286 5202 ft 231 kts 123°
2026-04-22 07:34 25.12181 55.74804 5105 ft 226 kts 123°
2026-04-22 07:34 25.11375 55.76248 4986 ft 216 kts 123°
2026-04-22 07:35 25.10621 55.77599 4901 ft 203 kts 123°
2026-04-22 07:35 25.09883 55.78921 4807 ft 201 kts 124°
2026-04-22 07:35 25.09151 55.80227 4797 ft 203 kts 123°
2026-04-22 07:35 25.08418 55.81536 4677 ft 199 kts 123°
2026-04-22 07:36 25.07696 55.82825 4608 ft 194 kts 123°
2026-04-22 07:36 25.06987 55.84090 4514 ft 195 kts 124°
2026-04-22 07:36 25.06144 55.85236 4395 ft 188 kts 150°
2026-04-22 07:36 25.04902 55.85540 4359 ft 190 kts 189°
2026-04-22 07:37 25.03647 55.85012 4312 ft 196 kts 208°
2026-04-22 07:37 25.02485 55.84242 4197 ft 193 kts 210°
2026-04-22 07:37 25.01382 55.83471 4110 ft 189 kts 216°
2026-04-22 07:37 25.00584 55.82317 4011 ft 193 kts 253°
2026-04-22 07:38 25.00609 55.80858 3974 ft 202 kts 289°
2026-04-22 07:38 25.01301 55.79481 3899 ft 206 kts 301°
2026-04-22 07:38 25.02075 55.78143 3800 ft 206 kts 300°
2026-04-22 07:38 25.02829 55.76801 3708 ft 206 kts 300°
2026-04-22 07:39 25.03584 55.75444 3622 ft 206 kts 300°
2026-04-22 07:39 25.04336 55.74121 3531 ft 206 kts 301°
2026-04-22 07:39 25.05103 55.72802 3419 ft 204 kts 301°
2026-04-22 07:39 25.05854 55.71487 3338 ft 201 kts 301°
2026-04-22 07:40 25.06598 55.70163 3255 ft 201 kts 301°
2026-04-22 07:40 25.07337 55.68839 3182 ft 201 kts 301°
2026-04-22 07:40 25.08058 55.67541 3073 ft 201 kts 301°
2026-04-22 07:40 25.08792 55.66217 2986 ft 202 kts 302°
2026-04-22 07:41 25.09527 55.64895 2909 ft 203 kts 302°
2026-04-22 07:41 25.10262 55.63569 2817 ft 203 kts 302°
2026-04-22 07:41 25.11000 55.62236 2739 ft 202 kts 301°
2026-04-22 07:41 25.11730 55.60920 2657 ft 202 kts 301°
2026-04-22 07:42 25.12471 55.59582 2559 ft 203 kts 302°
2026-04-22 07:42 25.13203 55.58263 2477 ft 202 kts 301°
2026-04-22 07:42 25.13928 55.56954 2391 ft 197 kts 302°
2026-04-22 07:42 25.14632 55.55685 2308 ft 192 kts 302°
2026-04-22 07:43 25.15321 55.54436 2216 ft 188 kts 302°
2026-04-22 07:43 25.16001 55.53214 2139 ft 188 kts 302°
2026-04-22 07:43 25.16681 55.51985 2110 ft 189 kts 302°
2026-04-22 07:43 25.17373 55.50732 2021 ft 191 kts 303°
2026-04-22 07:44 25.18047 55.49512 1951 ft 181 kts 302°
2026-04-22 07:44 25.18693 55.48347 1790 ft 179 kts 303°
2026-04-22 07:44 25.19342 55.47171 1583 ft 178 kts 306°
2026-04-22 07:44 25.19987 55.46010 1361 ft 176 kts 305°
2026-04-22 07:45 25.20624 55.44858 1110 ft 172 kts 305°
2026-04-22 07:45 25.21241 55.43746 914 ft 174 kts 307°
2026-04-22 07:45 25.21877 55.42602 711 ft 172 kts 305°
2026-04-22 07:45 25.22478 55.41509 497 ft 165 kts 302°
2026-04-22 07:46 25.23089 55.40407 278 ft 168 kts 302°
2026-04-22 07:46 25.23696 55.39308 45 ft 169 kts 301°
2026-04-22 07:46 25.24262 55.38285 27 ft 127 kts 301°
2026-04-22 07:46 25.24564 55.37739 26 ft 45 kts 301°
2026-04-22 07:47 25.24606 55.37497 26 ft 13 kts 275°
2026-04-22 07:47 25.24609 55.37437 26 ft 0 kts 272°
2026-04-22 07:47 25.24610 55.37422 26 ft 0 kts 272°
2026-04-22 07:48 25.24589 55.37391 25 ft 12 kts 209°
2026-04-22 07:49 25.24503 55.37462 26 ft 22 kts 128°
2026-04-22 07:49 25.24420 55.37620 26 ft 25 kts 124°
2026-04-22 07:49 25.24332 55.37792 26 ft 26 kts 122°
2026-04-22 07:49 25.24238 55.37959 26 ft 26 kts 124°
2026-04-22 07:50 25.24139 55.38128 26 ft 26 kts 121°
2026-04-22 07:50 25.24042 55.38304 26 ft 27 kts 122°
2026-04-22 07:50 25.23944 55.38479 26 ft 27 kts 122°
2026-04-22 07:50 25.23846 55.38651 26 ft 27 kts 122°
2026-04-22 07:51 25.23746 55.38828 26 ft 27 kts 122°
2026-04-22 07:51 25.23649 55.39003 26 ft 27 kts 121°
2026-04-22 07:51 25.23548 55.39185 26 ft 28 kts 122°
2026-04-22 07:51 25.23444 55.39365 26 ft 28 kts 122°
2026-04-22 07:52 25.23337 55.39551 26 ft 28 kts 122°
2026-04-22 07:52 25.23205 55.39683 26 ft 23 kts 190°
2026-04-22 07:52 25.23187 55.39565 26 ft 0 kts 295°